Lid_Strength_Index
4 5 5 6 6 7 10 12 12 7 7 11 13 13 11 8 8 8 8 9 10 11 11 12 12 12 10 8 8 11 10 13 14 12 11 10 12 12 13 16 17 17 17 17
5 5 6 6 6 7 11 13 12 7 7 14 14 12 10 9 9 9 9 10 9 10 12 14 12 10 8 8 9 10 11 14 17 15 13 11 12 11 12 14 14 17 19 16
5 5 5 6 6 7 10 11 13 11 11 12 13 13 12 11 8 8 10 10 9 11 12 12 13 11 9 7 8 5 7 14 14 16 14 12 13 12 12 13 17 16 16 14
5 5 5 5 6 7 10 12 14 12 15 13 14 14 12 12 12 10 10 11 11 12 14 12 12 11 10 8 7 8 11 15 13 12 11 11 11 11 12 13 13 15 13 13
5 5 5 5 5 7 12 14 14 13 14 14 14 13 14 13 12 12 12 13 12 12 14 13 14 13 12 12 10 11 12 14 13 13 11 11 12 11 11 11 11 12 12 13
4 5 5 5 5 8 14 13 13 13 14 15 15 15 13 13 13 12 10 11 12 13 12 11 11 10 11 11 12 12 13 15 16 17 12 12 15 12 11 11 11 11 14 12
5 5 5 5 5 8 13 13 14 15 17 14 14 13 13 13 13 14 11 11 13 11 9 10 10 11 11 11 11 10 13 14 15 18 15 19 13 10 9 10 10 10 10 10
5 5 5 5 5 6 11 12 13 14 17 14 14 13 14 13 13 13 12 11 10 10 11 13 15 15 14 12 11 11 10 13 16 18 17 13 12 10 11 11 11 9 10 9
6 5 5 5 5 5 11 12 11 11 14 16 13 14 13 15 16 14 12 10 10 11 13 14 17 18 15 15 13 11 11 11 12 17 18 20 13 8 7 8 15 9 8 9
6 6 5 5 5 5 9 11 12 13 15 13 12 13 15 12 13 14 12 12 12 11 14 14 14 16 13 16 16 15 15 14 15 15 17 15 10 8 6 14 13 8 8 9
6 6 6 5 5 5 8 10 10 11 11 11 9 9 11 10 11 13 12 13 12 13 14 14 14 14 13 13 13 14 14 15 16 15 17 18 8 8 11 10 10 8 9 10
6 5 5 5 4 4 5 8 8 7 8 10 7 6 6 7 7 9 10 11 12 10 11 10 11 12 12 13 16 10 14 12 14 13 14 9 7 8 7 8 9 9 9 8
5 5 4 3 3 2 4 5 4 6 7 8 10 8 5 4 4 3 8 8 6 8 6 10 11 12 10 14 13 12 10 8 11 12 10 9 8 7 7 7 8 8 8 8
4 3 3 2 1 1 1 5 6 4 5 8 8 3 4 2 4 4 3 4 6 5 5 8 10 11 9 11 10 11 10 9 10 11 9 8 7 6 8 8 7 7 8 8
2 2 1 1 1 -0 1 4 4 2 4 8 7 5 5 5 5 4 4 4 6 7 8 9 10 9 10 10 10 11 8 10 12 12 8 8 8 6 6 7 7 7 8 9
1 1 1 -0 -1 -1 4 6 3 0 1 6 10 8 7 4 3 3 5 6 5 6 7 9 8 7 8 12 13 8 7 6 6 8 6 6 6 6 5 7 7 7 9 8
1 0 -1 -1 -1 4 6 8 5 1 2 6 10 10 6 3 3 4 5 4 5 6 7 8 9 8 7 10 12 8 6 6 5 5 6 7 6 7 5 7 6 6 7 7
0 -1 -1 -2 -1 2 4 3 1 1 4 5 10 11 9 4 7 7 7 7 6 7 7 8 9 8 9 12 8 7 6 6 6 6 5 6 5 6 6 6 6 7 8 8
-1 -2 -1 3 5 7 4 -0 1 2 5 9 9 11 12 5 6 6 7 7 10 7 9 9 8 10 12 9 8 7 6 6 6 5 5 5 6 6 6 6 6 8 8 8
-0 3 5 8 5 -0 1 4 7 6 6 6 9 8 10 7 8 8 9 8 10 12 9 7 11 11 7 6 6 5 5 5 5 6 6 6 6 6 7 7 7 7 8 8
5 8 9 5 1 5 5 7 8 8 9 8 9 8 9 7 9 10 8 10 9 13 11 11 12 12 8 6 5 5 4 4 4 5 5 5 5 5 6 7 7 7 8 9
4 4 2 5 6 8 10 11 10 10 11 8 9 9 10 9 7 8 8 10 10 14 8 11 13 10 7 6 5 5 4 4 4 4 4 4 4 4 5 6 7 8 8 8
4 5 6 9 8 12 12 13 12 12 10 8 8 9 10 9 7 8 9 12 12 8 12 13 11 8 6 6 5 5 4 4 4 4 4 4 4 4 5 5 5 6 8 8
7 7 14 11 11 10 9 9 9 8 8 8 8 9 9 8 9 9 12 10 10 13 14 13 9 7 6 5 4 4 5 4 4 4 4 4 4 5 4 4 5 5 7 8
7 8 13 11 8 7 7 7 9 8 8 8 8 9 9 9 10 9 10 12 14 13 13 10 7 6 6 5 5 5 5 5 5 4 4 4 4 4 5 5 5 5 6 8
6 7 9 9 10 10 9 9 9 8 9 7 7 9 10 11 10 11 12 13 14 12 9 7 6 7 7 7 6 5 4 5 4 4 3 3 3 4 5 4 4 4 6 7
7 8 8 8 8 9 9 9 8 7 8 9 8 11 11 10 11 12 11 12 9 8 7 5 5 5 5 4 4 3 4 4 4 4 4 4 3 4 4 5 4 3 5 6